Home > Weather > Wuhan > Past weeks

Flag for China Weather for the Past 2 Weeks in Wuhan, Hubei, China

Now
77 °F

Clear.


Feels Like: 79 °F
Forecast: 73 / 84 °F
Wind: 10 mph from Southeast

Location: Wuhan Airport

Current Time: May 4, 2016 at 10:44:49 AM

Latest Report: May 4, 2016 at 10:00 AM


Visibility: 5 mi

Pressure: 29.80 "Hg

Humidity: 57%

Dew Point: 61 °F

Location of WuhanLocation

Historic Weather in Wuhan — Graph

°F

Wuhan Temperature Yesterday

Maximum temperature yesterday: 79 °F (at 1:00 PM)
Minimum temperature yesterday: 63 °F (at 1:00 AM)
Average temperature yesterday: 70 °F

High & Low Weather Summary for the Past Weeks

 TemperatureHumidityPressure
High86 °F (Apr 30, 2:00 PM)100% (Apr 20, 3:00 AM)30.04 "Hg (Apr 20, 3:00 AM)
Low57 °F (Apr 28, 6:00 AM)37% (Apr 29, 3:00 PM)29.59 "Hg (May 2, 3:00 AM)
Average70 °F77%29.85 "Hg
* Reported Apr 19 9:00 AM — May 4 9:00 AM, Wuhan, Weather by CustomWeather, © 2016

Note: Actual official high and low records may vary slightly from our data, if they occured in-between our weather recording intervals... More about our weather records

Advertising

Wuhan Weather History for the Previous 24 Hours

Scroll right to see more
 ConditionsComfort  
Time TempWeatherWind HumidityBarometerVisibility
9:00 AM
Wed, May 4
73 °FClear.10 mph65%29.80 "Hg4 mi
8:00 AM72 °FClear.10 mph65%29.80 "Hg4 mi
7:00 AM70 °FClear.8 mph69%29.80 "Hg4 mi
6:00 AM68 °FClear.8 mph73%29.80 "Hg4 mi
5:00 AM66 °FClear.10 mph78%29.80 "Hg10 mi
4:00 AM68 °FClear.8 mph73%29.80 "Hg10 mi
3:00 AM70 °FClear.8 mph60%29.80 "Hg10 mi
2:00 AM70 °FClear.3 mph60%29.80 "Hg10 mi
1:00 AM72 °FClear.3 mph61%29.83 "Hg10 mi
12:00 AM72 °FClear.3 mph69%29.86 "Hg10 mi
11:00 PM
Tue, May 3
72 °FClear.3 mph61%29.86 "Hg10 mi
10:00 PM70 °FClear.3 mph64%29.86 "Hg10 mi
9:00 PM72 °FClear.3 mph57%29.83 "Hg10 mi
8:00 PM73 °FClear.3 mph57%29.83 "Hg10 mi
7:00 PM73 °FSunny.6 mph53%29.83 "Hg10 mi
6:00 PM77 °FSunny.8 mph47%29.83 "Hg10 mi
5:00 PM79 °FSunny.8 mph45%29.83 "Hg10 mi
4:00 PM79 °FPassing clouds.8 mph48%29.86 "HgN/A
3:00 PM79 °FPassing clouds.8 mph54%29.86 "HgN/A
2:00 PM79 °FPassing clouds.10 mph51%29.89 "HgN/A
1:00 PM79 °FPassing clouds.8 mph45%29.92 "HgN/A
12:00 PM77 °FSunny.8 mph51%29.95 "Hg10 mi
11:00 AM73 °FSunny.6 mph65%29.98 "Hg10 mi
10:00 AM70 °FPassing clouds.6 mph78%29.98 "HgN/A
Weather by CustomWeather, © 2016

See weather overviewHow to use our weather pages